Weather History for Cape Girardeau, MO

Change the Weather History Date:

Friday, November 23, 2012

  Actual Average Record
Temperature  
Mean Temperature 45 °F 44 °F  
Max Temperature 56 °F 54 °F 69 °F (2005)
Min Temperature 33 °F 34 °F 16 °F (1970)
Degree Days  
Heating Degree Days 20 21  
Month to date heating degree days 412 386  
Since 1 July heating degree days 757 689  
Cooling Degree Days 0 0  
Month to date cooling degree days 0 0  
Year to date cooling degree days 1784 1451  
Moisture  
Dew Point 33 °F    
Average Humidity 70    
Maximum Humidity 93    
Minimum Humidity 46    
Precipitation  
Precipitation T in 0.15 in 1.84 in (1973)
Month to date precipitation 1.24 3.34  
Year to date precipitation 25.20 41.46  
Sea Level Pressure  
Sea Level Pressure 30.24 in    
Wind  
Wind Speed 11 mph (NW)    
Max Wind Speed 25 mph    
Max Gust Speed 32 mph    
Visibility 10 miles    
Events      
T = Trace of Precipitation, MM = Missing Value Source: NWS Daily Summary

Daily Weather History Graph

Daily Weather History Graph

Search for Another Location

Airport:

Trip Planner

Search our weather history database for the weather conditions in past years. The results will help you decide how hot, cold, wet, or windy it might be!

Date:

Astronomy

Nov. 23, 2012 Rise Set
Actual Time 6:46 AM CST 4:43 PM CST
Civil Twilight 6:17 AM CST 5:11 PM CST
Nautical Twilight 5:45 AM CST 5:43 PM CST
Astronomical Twilight 5:14 AM CST 6:14 PM CST
Moon 1:53 PM CST (11/23) 2:10 AM CST (11/23)
Length of Visible Light 10h 53m
Length of Day
9h 57m
Waxing Gibbous, 80% of the Moon is Illuminated
Nov 23
Waxing Gibbous
Nov 28
Full
Dec 6
Last Quarter
Dec 13
New
Dec 19
First Quarter

Hourly Weather History & Observations

Time (CST) Temp. Windchill Dew Point Humidity Pressure Visibility Wind Dir Wind Speed Gust Speed Precip Events Conditions
1:53 AM 54.0 °F - 51.1 °F 90% 30.09 in 10.0 mi WSW 12.7 mph - 0.00 in   Overcast
2:42 AM 53.6 °F - 51.8 °F 94% 30.11 in 8.0 mi West 9.2 mph - N/A   Overcast
2:53 AM 54.0 °F - 52.0 °F 93% 30.12 in 8.0 mi West 8.1 mph - N/A   Overcast
3:09 AM 53.6 °F - 39.2 °F 58% 30.13 in 10.0 mi NNW 20.7 mph 28.8 mph N/A   Overcast
3:53 AM 53.1 °F - 39.0 °F 59% 30.15 in 10.0 mi North 9.2 mph - N/A   Overcast
4:53 AM 50.0 °F - 37.9 °F 63% 30.17 in 10.0 mi NNW 9.2 mph - N/A   Clear
6:53 AM 42.1 °F 37.7 °F 33.1 °F 70% 30.22 in 10.0 mi NW 6.9 mph - N/A   Clear
7:53 AM 45.0 °F 41.8 °F 37.0 °F 74% 30.23 in 10.0 mi West 5.8 mph - N/A   Clear
8:53 AM 48.9 °F - 35.1 °F 59% 30.24 in 10.0 mi West 8.1 mph - N/A   Clear
9:53 AM 51.1 °F - 32.0 °F 48% 30.25 in 10.0 mi NW 18.4 mph 23.0 mph N/A   Clear
10:53 AM 51.1 °F - 32.0 °F 48% 30.25 in 10.0 mi NW 19.6 mph 25.3 mph N/A   Clear
11:53 AM 50.0 °F - 33.1 °F 52% 30.25 in 10.0 mi NW 16.1 mph - N/A   Mostly Cloudy
12:53 PM 48.0 °F - 30.9 °F 52% 30.25 in 10.0 mi NNW 16.1 mph - N/A   Scattered Clouds
1:53 PM 50.0 °F - 30.9 °F 48% 30.24 in 10.0 mi WNW 16.1 mph 21.9 mph N/A   Partly Cloudy
2:53 PM 48.9 °F - 30.0 °F 48% 30.25 in 10.0 mi NW 11.5 mph - N/A   Clear
3:53 PM 46.9 °F - 28.9 °F 50% 30.27 in 10.0 mi WNW 15.0 mph - N/A   Clear
4:53 PM 45.0 °F 39.7 °F 27.0 °F 49% 30.28 in 10.0 mi NW 10.4 mph - N/A   Clear
5:53 PM 43.0 °F 37.2 °F 24.1 °F 47% 30.30 in 10.0 mi NNW 10.4 mph - N/A   Clear
7:53 PM 37.0 °F 30.4 °F 21.9 °F 54% 30.34 in 10.0 mi WNW 9.2 mph - N/A   Clear
8:53 PM 37.0 °F 28.9 °F 19.9 °F 50% 30.34 in 10.0 mi NW 12.7 mph - N/A   Clear
9:53 PM 34.0 °F 27.2 °F 21.0 °F 59% 30.35 in 10.0 mi NNW 8.1 mph - N/A   Clear
10:53 PM 33.1 °F 26.1 °F 21.0 °F 61% 30.35 in 10.0 mi North 8.1 mph - N/A   Clear
11:53 PM 33.1 °F 23.4 °F 19.0 °F 56% 30.35 in 10.0 mi NNW 13.8 mph - N/A   Clear